#timestamp,LO_Frequency,Hit,StdDev 
1624579215.7,286047005.5,P
1624579235.5,286047003.7,N
1624579255.4,286047004.2,N
1624579275.2,286047001.7,N
1624579295.1,286047002.1,N
1624579296.0,286047002.1,N
1624579315.8,286047004.3,N
1624579335.6,286047002.6,N
1624579355.5,286047004.4,N
1624579375.3,286047004.2,N
1624579395.1,286047006.0,Y
1624579415.9,286046998.2,P
1624579435.7,286047001.2,N
1624579455.6,286047000.2,N
1624579475.4,286047000.4,N
1624579495.2,286047000.5,N
1624579515.1,286047000.9,N
1624579516.0,286047000.9,N
1624579535.8,286047000.8,N
1624579555.7,286046998.5,N
1624579575.5,286047000.6,N
1624579595.3,286047000.2,N
1624579615.2,286047001.1,N
1624579635.0,286046999.9,N
1624579635.9,286046999.9,N
1624579655.7,286046999.8,N
1624579675.6,286047000.2,N
1624579695.4,286047000.3,N
1624579715.3,286047000.8,N
1624579735.1,286046998.3,N
1624579736.0,286046998.3,N
1624579755.8,286047000.7,N
1624579775.7,286047000.1,N
1624579795.5,286047002.8,N
1624579815.3,286047000.6,N
1624579835.2,286047000.6,N
1624579855.0,286047000.6,N
1624579855.9,286047000.6,N
1624579875.8,286046998.4,N
1624579895.6,286046998.9,N
1624579915.4,286046999.4,N
1624579935.3,286047000.6,N
1624579955.1,286046998.5,N
1624579975.9,286047000.1,N
1624579995.7,286046998.2,N
1624580015.5,286046999.6,N
1624580035.4,286046997.1,N
1624580055.2,286046996.6,N
1624580075.0,286046998.5,N
1624580075.9,286046998.5,N
1624580095.8,286046999.0,N
1624580115.6,286047001.2,N
1624580135.5,286047001.1,N
1624580155.3,286046998.2,N
1624580175.1,286046999.9,N
1624580195.9,286047001.2,N
1624580215.7,286047001.1,N
1624580235.6,286047000.1,N
1624580255.4,286046998.3,N
1624580275.2,286047001.2,N
1624580295.1,286046998.6,N
1624580296.0,286046998.6,N
1624580315.8,286047000.3,N
1624580335.6,286046998.6,N
1624580355.5,286047000.0,N
1624580375.3,286047000.4,N
1624580395.2,286047001.2,N
1624580415.9,286047000.3,N
1624580435.7,286046998.2,N
1624580455.6,286046998.3,N
1624580475.4,286047002.8,N
1624580495.2,286047000.3,N
1624580515.1,286047000.7,N
1624580516.0,286047000.7,N
1624580535.8,286047000.8,N
1624580555.7,286047002.5,N
1624580575.5,286047000.1,N
1624580595.3,286047002.2,N
1624580615.2,286046999.7,N
1624580635.9,286047001.2,N
1624580655.7,286046999.3,N
1624580675.6,286046996.8,N
1624580695.4,286046996.7,N
1624580715.2,286046997.1,N
1624580735.1,286046997.0,N
1624580736.0,286046997.0,N
1624580755.8,286046996.7,N
1624580775.7,286046999.1,N
1624580795.5,286046996.6,N
1624580815.3,286046998.9,N
1624580835.2,286046999.2,N
1624580855.0,286046999.2,N
1624580855.9,286046999.2,N
1624580875.8,286046999.5,N
1624580895.6,286046999.6,N
1624580915.4,286046999.2,N
1624580935.3,286046998.3,N
1624580955.1,286046998.7,N
1624580975.8,286046998.8,N
1624580995.7,286046998.4,N
1624581015.5,286046998.6,N
1624581035.4,286046998.7,N
1624581055.2,286047001.0,N
1624581075.0,286046998.3,N
1624581075.9,286046998.3,N
1624581095.8,286046998.8,N
1624581115.6,286046996.7,N
1624581135.4,286046999.1,N
1624581155.3,286046999.3,N
1624581175.1,286046998.8,N
1624581195.9,286046998.7,N
1624581215.7,286046998.3,N
1624581235.5,286046999.4,N
1624581255.4,286046996.6,Y
1624581275.2,286046998.3,P
1624581295.0,286046999.3,P
1624581295.9,286046999.3,N
1624581315.8,286046997.1,Y
1624581335.6,286046999.0,P
1624581355.5,286046999.0,P
1624581375.3,286046998.8,P
1624581395.1,286046999.3,Y
1624581415.9,286046998.9,P
1624581435.7,286046999.6,P
1624581455.5,286046999.5,N
1624581475.4,286046997.5,Y
1624581495.2,286046997.1,P
1624581515.1,286046996.7,P
1624581516.0,286046996.7,P
1624581535.8,286046999.6,N
1624581555.6,286046999.6,N
1624581575.5,286046999.5,N
1624581595.3,286046998.4,N
1624581615.1,286046998.3,N
1624581635.9,286046998.1,N
1624581655.7,286047000.6,N
1624581675.6,286047001.2,N
1624581695.4,286047000.8,N
1624581715.2,286047002.7,N
1624581735.1,286047000.0,N
1624581736.0,286047000.0,N
1624581755.8,286047000.1,N
1624581775.7,286046999.7,N
1624581795.5,286047004.4,N
1624581815.3,286047001.9,N
1624581835.2,286047002.5,N
1624581855.9,286047002.6,N
1624581875.7,286047000.2,N
1624581895.6,286047002.4,N
1624581915.4,286047000.0,N
1624581935.3,286047002.3,N
1624581955.1,286046999.7,N
1624581956.0,286046999.7,N
1624581975.8,286047002.7,N
1624581995.7,286047000.2,N
1624582015.5,286047000.9,N
1624582035.3,286046999.7,N
1624582055.2,286047002.8,N
1624582075.0,286047002.3,N
1624582075.9,286047002.3,N
1624582095.8,286047002.6,N
1624582115.6,286047002.3,N
1624582135.4,286047002.3,N
1624582155.3,286047001.2,N
1624582175.1,286046998.5,N
1624582195.8,286046998.2,N
1624582215.7,286047000.0,N
1624582235.5,286047000.8,N
1624582255.4,286047001.0,N
1624582275.2,286047002.4,N
1624582295.0,286047000.1,N
1624582295.9,286047000.1,N
1624582315.8,286047001.5,N
1624582335.6,286047004.4,Y
1624582355.4,286047000.5,P
1624582375.3,286046999.7,N
1624582395.1,286047002.3,P
1624582415.9,286047002.4,N
1624582435.7,286047002.8,N
1624582455.5,286047002.6,N
1624582475.4,286047002.3,N
1624582495.2,286046998.3,N
1624582515.0,286047001.2,N
1624582515.9,286047001.2,N
1624582535.8,286047000.8,N
1624582555.6,286046999.9,N
1624582575.5,286047000.5,N
1624582595.3,286047001.2,N
1624582615.1,286047000.1,N
1624582635.9,286047000.1,N
1624582655.7,286047002.1,N
1624582675.5,286047004.4,Y
1624582695.4,286047002.5,P
1624582715.2,286047000.1,N
1624582735.0,286047002.6,N
1624582736.0,286047002.6,N
1624582755.8,286047002.3,N
1624582775.6,286047002.8,N
1624582795.5,286047002.1,N
